KC3QJO Weather Reports


time (UTC)temp
F
wind
direction
speed
knots
gust
knots
rain 1hr
in
rain 24hr
in
rain mn
in
humidity
%
barometer
mb
20260504151053 63 193 5.2 15.6 0.00 0.00 0.00 37 1011.7
20260504150554 63 225 6.1 15.6 0.00 0.00 0.00 38 1011.8
20260504141050 58 215 7.0 13.0 0.00 0.00 0.00 43 1012.0
20260504140550 58 223 2.6 9.6 0.00 0.00 0.00 46 1011.9
20260504130551 53 233 3.5 12.2 0.00 0.00 0.00 48 1012.4
20260504110550 47 0 0.0 1.7 0.00 0.00 0.00 57 1012.7
20260504100550 44 205 0.9 2.6 0.00 0.00 0.00 58 1012.4
20260504081555 46 266 0.9 2.6 0.00 0.00 0.00 54 1012.4
20260504081053 46 249 0.9 3.5 0.00 0.00 0.00 54 1012.4
20260504080551 46 252 0.9 3.5 0.00 0.00 0.00 54 1012.3
20260504050553 47 212 2.6 4.3 0.00 0.00 0.00 52 1012.4
20260504045552 47 203 0.9 6.1 0.00 0.00 0.00 52 1012.2
20260504045052 48 206 1.7 6.1 0.00 0.00 0.00 51 1012.2
20260504044554 48 202 1.7 6.1 0.00 0.00 0.00 51 1012.2
20260504044053 48 216 2.6 7.0 0.00 0.00 0.00 51 1012.2
20260504043552 48 225 3.5 7.0 0.00 0.00 0.00 51 1012.2
20260504043058 48 216 1.7 5.2 0.00 0.00 0.00 51 1012.2
20260504042556 48 209 1.7 6.1 0.00 0.00 0.00 51 1012.1
20260504042054 48 221 3.5 6.1 0.00 0.00 0.00 50 1012.2
20260504041554 48 211 0.9 4.3 0.00 0.00 0.00 50 1012.1
20260504041054 48 219 0.9 5.2 0.00 0.00 0.00 50 1011.9
20260504040554 48 220 1.7 6.1 0.00 0.00 0.00 50 1011.8
20260504040056 48 183 3.5 6.1 0.00 0.00 0.00 50 1011.9
20260504035552 48 214 1.7 6.1 0.00 0.00 0.00 50 1011.7
20260504035051 48 213 2.6 6.1 0.00 0.00 0.00 49 1011.7
20260504034554 48 214 2.6 6.1 0.00 0.00 0.00 49 1011.7
20260504034050 48 199 0.9 4.3 0.00 0.00 0.00 48 1011.7
20260504033553 49 192 0.0 5.2 0.00 0.00 0.00 48 1011.6
20260504033059 49 218 1.7 6.1 0.00 0.00 0.00 48 1011.7
20260504032553 49 226 2.6 6.1 0.00 0.00 0.00 47 1011.6
20260504032053 50 215 0.9 4.3 0.00 0.00 0.00 46 1011.6
20260504031553 50 251 0.9 2.6 0.00 0.00 0.00 45 1011.5
20260504031053 50 244 0.9 2.6 0.00 0.00 0.00 45 1011.5
20260504030553 50 231 0.9 2.6 0.00 0.00 0.00 45 1011.5
20260504030055 50 235 0.9 3.5 0.00 0.00 0.00 45 1011.5
20260504025553 50 210 0.9 3.5 0.00 0.00 0.00 45 1011.5
20260504025053 50 231 0.9 3.5 0.00 0.00 0.00 45 1011.5
20260504024554 50 213 0.9 3.5 0.00 0.00 0.00 45 1011.6
20260504024053 50 252 0.9 3.5 0.00 0.00 0.00 45 1011.5
20260504023551 50 291 0.9 6.1 0.00 0.00 0.00 45 1011.5
20260504023057 50 247 0.9 6.1 0.00 0.00 0.00 45 1011.6
20260504022551 50 228 0.9 4.3 0.00 0.00 0.00 45 1011.6
20260504022051 51 222 1.7 4.3 0.00 0.00 0.00 45 1011.6
20260504021600 51 212 0.9 2.6 0.00 0.00 0.00 44 1011.5
20260504021050 51 214 0.9 3.5 0.00 0.00 0.00 44 1011.6
20260504020550 51 227 0.9 3.5 0.00 0.00 0.00 43 1011.5
20260504020137 51 229 0.9 4.3 0.00 0.00 0.00 44 1011.5
20260504015553 51 232 1.7 4.3 0.00 0.00 0.00 44 1011.4
20260504015053 51 227 0.9 3.5 0.00 0.00 0.00 44 1011.5
20260504014604 51 233 0.9 3.5 0.00 0.00 0.00 43 1011.5
20260504014050 51 222 0.9 2.6 0.00 0.00 0.00 43 1011.4
20260504013551 51 230 0.9 2.6 0.00 0.00 0.00 42 1011.4
20260504013117 51 241 0.9 2.6 0.00 0.00 0.00 42 1011.4
20260504012553 52 218 0.9 2.6 0.00 0.00 0.00 43 1011.3
20260504012055 52 224 0.9 2.6 0.00 0.00 0.00 41 1011.4
20260504011600 52 241 0.0 2.6 0.00 0.00 0.00 41 1011.4
20260504011052 52 218 0.0 3.5 0.00 0.00 0.00 41 1011.3
20260504010552 53 236 0.9 3.5 0.00 0.00 0.00 40 1011.2
20260504010054 53 218 0.9 2.6 0.00 0.00 0.00 40 1011.2
20260504005552 53 229 0.9 2.6 0.00 0.00 0.00 39 1011.1
20260504005052 53 0 0.9 2.6 0.00 0.00 0.00 40 1011.0
20260504004640 53 231 0.9 2.6 0.00 0.00 0.00 39 1010.9
20260504004053 53 0 0.9 2.6 0.00 0.00 0.00 39 1010.9
20260504003552 54 245 0.9 2.6 0.00 0.00 0.00 38 1010.9
20260504003103 54 283 0.0 1.7 0.00 0.00 0.00 38 1010.8
20260504002552 54 275 0.0 2.6 0.00 0.00 0.00 38 1010.7
20260504002052 54 0 0.0 2.6 0.00 0.00 0.00 38 1010.7
20260504001621 55 0 0.0 2.6 0.00 0.00 0.00 37 1010.6
20260504001052 55 291 0.9 4.3 0.00 0.00 0.00 37 1010.6
20260504000552 55 274 0.0 6.1 0.00 0.00 0.00 37 1010.6
20260504000104 55 0 0.9 7.0 0.00 0.00 0.00 36 1010.5
20260503235554 55 256 1.7 7.0 0.00 0.00 0.00 36 1010.4
20260503235054 56 278 0.9 7.0 0.00 0.00 0.00 36 1010.4
20260503234605 56 279 0.9 7.0 0.00 0.00 0.00 35 1010.3
20260503234053 56 240 1.7 7.0 0.00 0.00 0.00 35 1010.3
20260503233553 56 274 0.9 7.0 0.00 0.00 0.00 35 1010.3
20260503233100 57 293 1.7 7.0 0.00 0.00 0.00 35 1010.2
20260503232552 57 245 1.7 7.0 0.00 0.00 0.00 34 1010.1
20260503232052 57 256 0.0 7.0 0.00 0.00 0.00 35 1010.1
20260503231556 57 272 0.9 3.5 0.00 0.00 0.00 34 1010.2
20260503231108 58 233 0.9 7.8 0.00 0.00 0.00 34 1010.1
20260503230555 58 236 1.7 9.6 0.00 0.00 0.00 33 1010.1
20260503230110 58 25 1.7 11.3 0.00 0.00 0.00 32 1010.1
20260503225552 58 317 5.2 11.3 0.00 0.00 0.00 32 1010.0
20260503225052 58 0 3.5 11.3 0.00 0.00 0.00 32 1010.0
20260503224606 58 335 1.7 8.7 0.00 0.00 0.00 33 1010.0
20260503224052 58 224 1.7 7.8 0.00 0.00 0.00 33 1010.0
20260503223552 58 297 1.7 8.7 0.00 0.00 0.00 33 1010.0
20260503223058 58 240 2.6 8.7 0.00 0.00 0.00 31 1010.1
20260503222552 58 312 1.7 8.7 0.00 0.00 0.00 31 1010.1
20260503222051 58 358 1.7 8.7 0.00 0.00 0.00 32 1010.1
20260503221603 58 323 1.7 8.7 0.00 0.00 0.00 32 1010.0
20260503221051 58 271 1.7 11.3 0.00 0.00 0.00 31 1010.0
20260503220553 59 256 1.7 11.3 0.00 0.00 0.00 32 1010.0
20260503220058 58 0 2.6 8.7 0.00 0.00 0.00 31 1010.1
20260503215552 58 293 1.7 8.7 0.00 0.00 0.00 30 1010.1
20260503215052 58 301 1.7 10.4 0.00 0.00 0.00 31 1010.0
20260503214600 58 234 2.6 12.2 0.00 0.00 0.00 31 1010.0
20260503214052 58 256 3.5 12.2 0.00 0.00 0.00 29 1009.9
20260503213555 59 267 1.7 12.2 0.00 0.00 0.00 29 1009.9
20260503213053 59 308 1.7 12.2 0.00 0.00 0.00 31 1009.8
20260503212552 59 341 3.5 12.2 0.00 0.00 0.00 29 1009.8
20260503212052 59 260 1.7 10.4 0.00 0.00 0.00 30 1009.8
20260503211559 59 258 2.6 10.4 0.00 0.00 0.00 29 1009.8
20260503211054 59 285 4.3 11.3 0.00 0.00 0.00 29 1009.8
20260503210552 59 276 3.5 13.0 0.00 0.00 0.00 29 1009.7
20260503210057 59 245 4.3 13.0 0.00 0.00 0.00 27 1009.9
20260503205552 59 208 3.5 13.0 0.00 0.00 0.00 28 1009.8
20260503205052 60 221 1.7 10.4 0.00 0.00 0.00 29 1009.8
20260503204554 59 0 2.6 16.5 0.00 0.00 0.00 31 1009.9
20260503204053 59 260 3.5 16.5 0.00 0.00 0.00 29 1009.9
20260503203552 58 246 5.2 16.5 0.00 0.00 0.00 28 1009.8
20260503203112 58 254 7.0 14.8 0.00 0.00 0.00 27 1009.9
20260503202553 58 260 4.3 11.3 0.00 0.00 0.00 29 1010.0
20260503202053 58 296 4.3 11.3 0.00 0.00 0.00 30 1010.0
20260503201555 59 314 3.5 12.2 0.00 0.00 0.00 29 1010.0
20260503201052 58 303 2.6 14.8 0.00 0.00 0.00 29 1010.0
20260503200552 59 333 4.3 15.6 0.00 0.00 0.00 29 1010.1
20260503200052 59 214 3.5 15.6 0.00 0.00 0.00 31 1010.1
20260503195552 59 256 5.2 15.6 0.00 0.00 0.00 31 1010.3
20260503195052 58 266 3.5 12.2 0.00 0.00 0.00 32 1010.2
20260503194557 58 285 3.5 16.5 0.00 0.00 0.00 31 1010.3
20260503194052 58 267 4.3 16.5 0.00 0.00 0.00 28 1010.4
20260503193552 58 314 5.2 16.5 0.00 0.00 0.00 31 1010.3
20260503193055 58 276 5.2 13.9 0.00 0.00 0.00 29 1010.4
20260503192551 58 272 3.5 12.2 0.00 0.00 0.00 30 1010.5
20260503192051 58 335 2.6 12.2 0.00 0.00 0.00 30 1010.6
20260503191556 57 329 2.6 16.5 0.00 0.00 0.00 32 1010.8
20260503191053 57 326 5.2 16.5 0.00 0.00 0.00 30 1010.8
20260503190552 58 204 5.2 12.2 0.00 0.00 0.00 31 1010.7
20260503190108 57 289 4.3 11.3 0.00 0.00 0.00 31 1010.8
20260503185552 58 279 2.6 11.3 0.00 0.00 0.00 31 1010.8
20260503185052 57 314 4.3 14.8 0.00 0.00 0.00 30 1010.9
20260503184554 57 262 5.2 14.8 0.00 0.00 0.00 29 1010.7
20260503184052 58 274 4.3 12.2 0.00 0.00 0.00 32 1010.8
20260503183553 58 279 3.5 12.2 0.00 0.00 0.00 33 1010.9
20260503183055 58 225 4.3 12.2 0.00 0.00 0.00 30 1010.9
20260503182552 57 258 4.3 12.2 0.00 0.00 0.00 32 1010.8
20260503182052 57 158 3.5 12.2 0.00 0.00 0.00 34 1010.9
20260503181600 57 305 3.5 12.2 0.00 0.00 0.00 32 1010.9
20260503181052 55 355 3.5 12.2 0.00 0.00 0.00 33 1010.9
20260503180552 55 285 5.2 12.2 0.00 0.00 0.00 32 1010.9
20260503180055 56 262 4.3 9.6 0.00 0.00 0.00 31 1010.9
20260503175552 57 311 2.6 14.8 0.00 0.00 0.00 33 1011.0
20260503175052 56 297 2.6 17.4 0.00 0.00 0.00 32 1010.9
20260503174554 55 238 5.2 18.2 0.00 0.00 0.00 31 1011.1
20260503174052 55 333 5.2 18.2 0.00 0.00 0.00 32 1011.1
20260503173552 54 12 3.5 14.8 0.00 0.00 0.00 32 1011.0
20260503173055 54 20 6.1 14.8 0.00 0.00 0.00 30 1011.1
20260503172552 55 337 4.3 16.5 0.00 0.00 0.00 31 1011.3
20260503172052 55 243 5.2 16.5 0.00 0.00 0.00 31 1011.2
20260503171604 54 334 4.3 15.6 0.00 0.00 0.00 32 1011.3
20260503171052 53 277 4.3 15.6 0.00 0.00 0.00 34 1011.3
20260503170552 53 33 7.8 15.6 0.00 0.00 0.00 31 1011.4